TimeHST,TemperatureF,Dew PointF,Humidity,Sea Level PressureIn,VisibilityMPH,Wind Direction,Wind SpeedMPH,Gust SpeedMPH,PrecipitationIn,Events,Conditions,WindDirDegrees,DateUTC
12:53 AM,66.9,51.1,57,29.87,10.0,North,19.6,-,N/A,,Clear,10,2014-01-23 10:53:00
1:53 AM,64.0,52.0,65,29.87,10.0,North,16.1,-,N/A,,Clear,10,2014-01-23 11:53:00
2:53 AM,64.9,51.1,61,29.84,10.0,North,11.5,-,N/A,,Clear,10,2014-01-23 12:53:00
3:53 AM,68.0,44.1,42,29.83,10.0,NNE,10.4,-,N/A,,Clear,30,2014-01-23 13:53:00
4:53 AM,66.0,46.9,50,29.83,10.0,NE,11.5,20.7,N/A,,Clear,40,2014-01-23 14:53:00
5:53 AM,62.1,50.0,65,29.86,10.0,NNE,13.8,-,N/A,,Clear,20,2014-01-23 15:53:00
6:53 AM,61.0,50.0,67,29.89,10.0,NNE,10.4,-,N/A,,Clear,20,2014-01-23 16:53:00
7:53 AM,62.1,51.1,67,29.91,10.0,NE,6.9,-,N/A,,Clear,40,2014-01-23 17:53:00
8:53 AM,73.0,48.0,41,29.91,10.0,Calm,Calm,-,N/A,,Clear,0,2014-01-23 18:53:00
9:53 AM,77.0,48.9,37,29.94,10.0,NNE,10.4,-,N/A,,Clear,30,2014-01-23 19:53:00
10:53 AM,79.0,55.0,44,29.92,10.0,North,8.1,-,N/A,,Mostly Cloudy,350,2014-01-23 20:53:00
11:53 AM,78.1,55.9,46,29.91,10.0,NW,8.1,-,N/A,,Overcast,320,2014-01-23 21:53:00
12:53 PM,79.0,59.0,50,29.87,10.0,SW,6.9,-,N/A,,Overcast,220,2014-01-23 22:53:00
1:53 PM,78.1,59.0,52,29.85,10.0,WSW,8.1,-,N/A,,Clear,240,2014-01-23 23:53:00
2:53 PM,79.0,60.1,52,29.81,10.0,South,16.1,-,N/A,,Overcast,170,2014-01-24 00:53:00
3:53 PM,79.0,60.1,52,29.82,10.0,South,18.4,-,N/A,,Clear,180,2014-01-24 01:53:00
4:53 PM,78.1,61.0,56,29.84,10.0,South,16.1,-,N/A,,Overcast,180,2014-01-24 02:53:00
5:53 PM,75.9,61.0,60,29.88,10.0,South,10.4,-,N/A,,Partly Cloudy,180,2014-01-24 03:53:00
6:53 PM,75.9,61.0,60,29.90,10.0,South,11.5,-,N/A,,Overcast,180,2014-01-24 04:53:00
7:53 PM,75.0,61.0,62,29.91,10.0,SSW,13.8,-,N/A,,Overcast,200,2014-01-24 05:53:00
8:53 PM,73.9,61.0,64,29.93,10.0,South,10.4,-,N/A,,Overcast,190,2014-01-24 06:53:00
9:53 PM,73.0,61.0,66,29.94,10.0,SE,3.5,-,N/A,,Overcast,130,2014-01-24 07:53:00
10:53 PM,72.0,61.0,68,29.94,10.0,SE,5.8,-,N/A,,Overcast,130,2014-01-24 08:53:00
11:53 PM,71.1,60.1,68,29.94,10.0,East,4.6,-,N/A,,Overcast,90,2014-01-24 09:53:00